Notices

What's New in latest Release from April 7th, 2021:

- Updated Glossary, including Speed of Maximum Gust, and Total Hourly Precipitation

- Updated national and regional climate services offices contacts and prices information

- Addition of station inventory lists for 1981-2010, 1971-2000, and 1961-1990 Normals.

If you haven't already, please take our survey and provide feedback about our website: https://eccc.sondage-survey.ca/f/LanguageSelection.aspx?s=442ca660-fcf1-47c0-95a9-59707d6fd709

Hourly Data Report for July 17, 2018

OTTAWA INTL A
ONTARIO
Current Station Operator: NAVCAN

45°19'00.000" N
75°40'00.000" W
114.90 m
6106001
71628
YOW

Download Data

Hourly Data (July 2018)
Hourly Data Report for July 17, 2018
TIME
LST
Temp Definition
°C
Dew Point Definition
°C
Rel Hum Definition
%
Precip. Amount Definition
mm

Wind Dir Definition
10's deg

Wind Spd Definition
km/h
Visibility Definition
km
Stn Press Definition
kPa
Hmdx Definition


Wind Chill Definition


Weather Definition


00:00 24.3 20.1 77   23 13 24.1 99.49 32   LegendNANA
01:00 21.9 20.5 92   25 11 8.1 99.42 30   Thunderstorms,Moderate Rain Showers
02:00 21.6 20.7 95   18 4 24.1 99.43 30   LegendNANA
03:00 21.4 20.5 95   20 5 24.1 99.39 29   LegendNANA
04:00 21.9 21.1 95   25 9 12.9 99.38 30   Rain Showers
05:00 22.0 21.2 95   22 10 9.7 99.39 31   Fog
06:00 21.9 21.0 95   23 13 12.9 99.40 30   LegendNANA
07:00 22.4 20.2 87   28 16 16.1 99.46 30   Mostly Cloudy
08:00 23.7 20.5 82   26 16 24.1 99.47 32   LegendNANA
09:00 25.2 19.2 69   26 15 24.1 99.46 32   LegendNANA
10:00 26.2 16.1 53   28 18 24.1 99.45 31   Clear
11:00 27.5 13.1 40   30 26 24.1 99.45 30   LegendNANA
12:00 27.6 11.4 36   30 28 24.1 99.44 30   LegendNANA
13:00 27.9 11.1 35   28 29 24.1 99.45 30   Clear
14:00 28.1 10.6 33   29 26 24.1 99.43 30   LegendNANA
15:00 28.2 13.5 40   28 20 24.1 99.44 31   LegendNANA
16:00 26.9 11.8 39   32 21 24.1 99.46 29   Mainly Clear
17:00 27.0 12.8 41   34 30 24.1 99.50 30   LegendNANA
18:00 25.2 12.0 43   33 25 24.1 99.59 27   LegendNANA
19:00 23.9 12.3 48   32 22 24.1 99.69 26   Mainly Clear
20:00 22.1 11.5 50   32 25 24.1 99.79     LegendNANA
21:00 21.2 11.7 54   34 25 24.1 99.89     LegendNANA
22:00 20.1 11.2 56   34 22 24.1 99.92     Clear
23:00 19.2 11.5 61   34 24 24.1 99.98     LegendNANA

Notes on Data Quality.

Legend

  • E = Estimated
  • M = Missing
  • NA = Not Available*
  • [empty] = Indicates an unobserved value
Date modified: